Temp
69 69 67 67 59 56 49 53 56 58 58 62 64 63 59 58 58 52 66 71 70 70 71 72 73 75 75 74 74 75 75 75 75 75 75 75 75 75 75 74 75 75 76 75 75 74 73 72 72
69 71 67 60 55 49 49 54 58 58 63 63 65 62 59 56 64 63 64 71 71 71 71 70 72 74 74 74 74 74 75 75 75 75 75 75 75 74 74 74 74 75 75 75 75 74 73 72 71
69 72 62 57 53 51 50 55 59 61 63 63 61 63 60 59 64 65 69 71 71 70 70 70 71 73 73 73 74 74 75 75 75 75 75 75 75 74 74 74 74 73 75 74 74 73 72 71 71
71 67 62 54 51 55 58 59 61 62 62 65 63 58 63 67 68 68 72 72 69 69 69 70 72 73 73 73 74 74 74 75 75 75 75 75 74 74 73 73 73 73 74 74 73 72 72 71 71
67 61 52 50 53 56 60 61 62 61 61 59 60 55 57 67 71 72 71 71 67 67 68 69 71 72 73 73 74 74 74 74 74 74 74 74 74 73 73 73 73 73 73 73 72 72 71 71 71
62 60 49 47 51 58 60 62 63 61 60 60 59 57 57 67 69 70 71 68 69 67 68 69 68 70 71 72 72 73 73 73 73 73 73 74 73 73 73 73 73 72 72 72 72 71 71 70 70
60 56 50 50 53 55 62 64 62 61 60 59 63 54 58 64 69 70 69 68 68 69 67 67 67 68 67 69 69 70 71 71 72 72 72 72 71 72 71 71 72 72 72 72 72 71 70 70 70
63 60 52 50 55 55 62 63 63 65 59 66 65 55 58 64 70 70 71 68 66 67 67 66 66 67 67 66 65 67 68 69 69 69 68 67 68 68 68 67 70 71 71 71 71 70 70 70 70
63 56 52 53 57 59 63 63 63 65 65 62 63 62 65 69 69 69 67 66 65 67 66 66 66 66 66 66 65 64 65 66 67 66 65 64 65 68 67 66 68 70 70 70 70 70 70 68 66
59 52 55 59 57 59 62 64 64 62 60 58 58 65 70 68 67 64 64 63 63 64 65 66 66 65 66 70 65 65 66 65 65 65 64 65 68 69 70 64 64 66 67 68 69 69 68 63 61
58 54 58 58 60 62 63 61 63 61 55 60 59 63 66 65 64 65 65 65 65 66 66 67 66 66 65 66 64 64 65 65 65 68 65 66 70 68 64 62 61 61 61 62 63 62 62 61 61
57 58 60 59 60 63 63 64 62 59 63 66 67 68 66 65 65 65 64 64 64 64 66 67 67 66 65 65 64 64 65 64 64 65 66 65 63 62 61 60 60 60 60 60 60 60 61 61 61
57 56 59 59 60 59 62 59 60 58 60 66 67 67 66 66 66 66 67 67 66 66 67 68 66 67 67 65 65 64 65 65 65 65 68 66 63 61 62 62 62 61 64 64 64 64 62 61 61
59 58 57 58 57 58 59 56 59 61 61 63 65 63 64 65 66 64 64 66 66 68 67 68 67 68 68 66 65 65 64 65 63 62 62 63 62 61 61 62 64 63 64 64 63 64 63 61 61
59 54 53 54 55 54 57 54 54 58 62 61 62 61 62 65 65 67 67 67 68 68 66 65 65 66 66 66 65 63 63 62 59 58 59 60 61 63 64 63 63 63 64 64 63 61 61 60 60
50 49 48 52 56 55 54 47 55 57 59 58 59 58 60 62 66 67 66 67 66 64 64 64 66 63 63 62 61 62 60 58 56 56 56 57 59 60 60 60 59 61 61 59 60 58 61 60 58
43 39 43 47 54 52 51 47 53 54 56 55 56 58 60 61 62 63 64 63 63 64 62 61 61 60 60 60 59 57 56 55 54 53 53 54 55 56 56 55 55 58 60 59 59 58 55 55 55
39 39 43 45 51 50 47 47 50 53 54 54 54 55 57 59 61 60 60 59 59 59 59 59 59 59 59 58 57 55 53 52 51 51 51 52 52 53 53 52 52 56 56 53 53 53 54 54 54
47 44 41 42 49 48 46 45 51 53 50 51 52 54 54 56 55 55 58 57 57 56 57 58 58 57 58 56 54 53 51 50 49 49 50 50 51 51 51 51 51 51 50 49 50 50 51 51 52
48 42 38 42 47 46 44 47 50 51 52 53 53 53 54 51 52 53 53 54 56 55 55 56 56 56 56 56 55 53 51 48 47 47 47 49 49 50 51 49 48 48 47 47 46 46 47 49 48
43 42 39 42 44 44 40 42 46 52 52 52 54 53 53 52 52 51 52 52 51 52 53 54 54 54 54 54 54 52 50 48 46 45 45 46 47 47 47 47 46 45 45 43 42 42 44 44 46
42 48 46 43 41 35 39 33 40 46 50 51 55 52 53 51 51 52 51 49 49 49 49 51 52 52 53 53 53 52 49 47 46 45 44 45 46 45 45 45 44 43 42 41 42 43 41 43 40
44 48 46 43 38 35 34 33 39 42 46 50 50 51 49 49 51 50 49 49 47 46 46 46 48 50 51 52 52 51 47 45 44 43 43 43 42 43 43 43 42 42 41 40 40 40 39 39 38
47 45 41 38 36 26 35 36 34 40 46 44 45 45 46 47 46 47 47 46 44 44 44 45 47 47 49 50 50 48 46 44 43 41 40 40 39 39 40 42 41 41 40 40 39 38 37 37 36
44 39 22 22 20 25 32 32 39 43 47 47 46 44 43 43 42 42 43 43 43 43 43 44 45 45 46 47 47 46 45 45 43 42 40 39 38 37 38 39 39 39 39 39 38 36 35 35 34
40 40 27 24 22 27 32 30 38 41 42 43 46 44 43 42 41 41 42 42 42 43 42 43 43 43 44 44 44 45 45 43 42 41 39 38 37 37 38 38 38 38 38 37 36 35 34 33 32
40 36 41 29 20 23 29 34 43 40 39 39 42 43 41 41 41 41 42 42 41 41 42 42 42 42 42 42 42 42 41 41 40 39 38 37 37 39 37 37 36 36 36 36 35 33 32 32 31
41 44 32 25 17 18 26 28 33 36 39 40 40 40 41 41 41 41 41 41 41 41 42 41 41 41 41 41 40 40 39 39 38 38 37 37 36 37 36 35 35 35 35 34 33 32 32 31 31
36 34 35 34 28 23 21 29 38 40 41 41 41 42 41 41 41 41 41 41 41 41 40 40 40 40 40 40 39 38 38 38 38 37 36 36 36 35 35 35 35 34 33 33 32 31 31 30 30
40 38 38 30 26 24 26 29 42 42 42 43 43 44 42 42 42 42 42 41 40 40 39 39 39 40 40 39 38 38 38 37 36 36 35 35 34 34 34 34 34 33 33 32 31 31 30 29 29
MSLP
1012.85 1012.97 1013.07 1013.17 1014.20 1014.41 1014.45 1014.29 1013.98 1014.13 1014.28 1014.35 1014.40 1014.90 1016.37 1017.11 1017.60 1018.49 1018.01 1018.58 1018.90 1019.38 1019.79 1020.04 1020.20 1020.29 1020.48 1020.60 1020.85 1020.99 1021.13 1021.25 1021.28 1021.33 1021.31 1021.32 1021.37 1021.45 1021.46 1021.42 1021.33 1021.26 1021.19 1021.47 1021.56 1021.67 1021.77 1021.78 1021.74
1013.03 1013.22 1013.32 1013.66 1014.15 1014.51 1014.57 1014.16 1014.19 1014.04 1014.47 1014.65 1014.85 1015.66 1016.48 1017.57 1017.56 1018.22 1018.67 1019.04 1018.94 1019.38 1019.88 1020.17 1020.35 1020.53 1020.73 1020.88 1021.04 1021.16 1021.30 1021.40 1021.45 1021.49 1021.53 1021.52 1021.60 1021.65 1021.66 1021.66 1021.62 1021.50 1021.52 1021.62 1021.69 1021.82 1021.89 1021.91 1021.86
1012.95 1013.03 1013.89 1013.94 1014.18 1014.19 1014.30 1014.23 1014.20 1014.35 1014.50 1014.52 1015.56 1016.02 1016.71 1017.71 1017.95 1018.21 1018.34 1018.88 1019.11 1019.57 1019.97 1020.26 1020.41 1020.61 1020.86 1021.08 1021.27 1021.35 1021.41 1021.48 1021.59 1021.64 1021.67 1021.77 1021.81 1021.84 1021.90 1021.87 1021.85 1021.76 1021.62 1021.73 1021.87 1021.94 1022.00 1022.04 1021.99
1012.73 1013.30 1014.16 1014.01 1014.02 1013.56 1013.59 1014.05 1013.88 1014.38 1014.67 1014.81 1015.71 1016.87 1017.06 1017.17 1017.47 1017.81 1018.45 1018.81 1019.33 1019.83 1020.11 1020.36 1020.53 1020.69 1020.88 1021.07 1021.25 1021.22 1021.42 1021.56 1021.67 1021.75 1021.80 1021.85 1021.96 1022.02 1022.10 1022.09 1022.08 1022.01 1021.91 1021.88 1022.03 1022.14 1022.23 1022.24 1022.19
1012.85 1013.73 1014.17 1014.15 1013.73 1013.39 1013.32 1013.59 1013.72 1014.41 1014.87 1015.60 1015.82 1017.33 1017.49 1017.29 1017.32 1017.99 1018.70 1018.96 1019.49 1020.07 1020.36 1020.48 1020.64 1020.81 1020.99 1021.16 1021.34 1021.47 1021.58 1021.67 1021.77 1021.88 1021.88 1021.96 1022.07 1022.19 1022.23 1022.25 1022.25 1022.29 1022.26 1022.26 1022.33 1022.37 1022.38 1022.37 1022.35
1013.11 1013.65 1014.30 1014.31 1013.66 1013.40 1013.60 1013.75 1013.80 1014.42 1015.08 1015.90 1016.52 1017.26 1017.91 1017.65 1017.68 1018.40 1018.80 1019.27 1019.45 1019.93 1020.32 1020.53 1020.68 1020.87 1021.05 1021.20 1021.41 1021.61 1021.74 1021.84 1021.94 1022.00 1022.01 1022.02 1022.19 1022.29 1022.35 1022.39 1022.40 1022.43 1022.44 1022.42 1022.43 1022.46 1022.46 1022.42 1022.38
1012.88 1013.50 1013.94 1013.91 1013.73 1013.75 1013.52 1013.63 1013.74 1014.46 1015.11 1015.70 1016.04 1017.62 1018.23 1018.04 1018.15 1018.45 1018.99 1019.23 1019.67 1019.99 1020.35 1020.68 1020.84 1021.01 1021.15 1021.38 1021.54 1021.72 1021.86 1021.99 1022.12 1022.23 1022.19 1022.26 1022.41 1022.48 1022.50 1022.51 1022.51 1022.51 1022.53 1022.53 1022.50 1022.50 1022.47 1022.42 1022.32
1012.53 1013.10 1013.62 1013.39 1013.43 1013.38 1013.31 1013.59 1013.77 1013.89 1014.99 1015.36 1015.65 1017.23 1018.20 1017.90 1018.08 1018.57 1019.14 1019.66 1020.01 1020.20 1020.40 1020.79 1021.01 1021.19 1021.38 1021.57 1021.70 1021.90 1022.05 1022.20 1022.31 1022.43 1022.47 1022.50 1022.56 1022.58 1022.64 1022.62 1022.56 1022.53 1022.56 1022.54 1022.52 1022.49 1022.37 1022.27 1022.23
1012.38 1013.13 1013.45 1013.45 1013.36 1013.19 1013.46 1013.60 1013.89 1013.89 1014.56 1015.26 1015.67 1015.99 1016.40 1017.42 1018.08 1018.62 1019.32 1019.96 1020.31 1020.46 1020.49 1020.79 1021.10 1021.29 1021.46 1021.63 1021.76 1021.90 1022.03 1022.15 1022.26 1022.36 1022.46 1022.54 1022.61 1022.56 1022.58 1022.59 1022.47 1022.44 1022.45 1022.42 1022.37 1022.28 1022.12 1022.15 1022.26
1012.71 1013.33 1013.09 1013.06 1013.10 1013.22 1013.32 1013.16 1013.60 1014.26 1014.90 1015.87 1016.01 1016.10 1016.64 1017.43 1018.18 1018.66 1019.12 1019.70 1020.07 1020.23 1020.35 1020.42 1020.74 1021.04 1021.33 1021.41 1021.74 1021.88 1022.00 1022.11 1022.21 1022.25 1022.36 1022.44 1022.35 1022.27 1022.27 1022.26 1022.32 1022.36 1022.38 1022.36 1022.29 1022.20 1022.17 1022.28 1022.29
1012.64 1012.81 1012.92 1013.38 1013.28 1013.37 1013.39 1013.68 1013.77 1014.35 1015.18 1015.23 1015.84 1016.50 1016.99 1017.61 1018.09 1018.61 1019.00 1019.18 1019.35 1019.70 1020.07 1020.28 1020.48 1020.79 1021.18 1021.42 1021.72 1021.74 1021.64 1021.69 1021.89 1021.98 1022.07 1022.10 1022.02 1022.02 1022.14 1022.34 1022.49 1022.52 1022.44 1022.43 1022.41 1022.34 1022.25 1022.25 1022.24
1012.82 1013.13 1013.11 1013.53 1013.42 1013.43 1013.52 1013.65 1014.09 1014.33 1014.39 1014.52 1015.00 1015.52 1016.63 1017.37 1017.73 1017.97 1018.45 1018.91 1019.24 1019.60 1019.79 1019.98 1020.14 1020.59 1020.95 1021.16 1021.30 1021.43 1021.59 1021.42 1021.67 1021.71 1021.76 1022.01 1022.26 1022.43 1022.53 1022.59 1022.56 1022.54 1022.48 1022.45 1022.35 1022.27 1022.17 1022.07 1021.98
1013.20 1013.71 1013.62 1013.71 1013.79 1013.73 1013.59 1014.10 1014.31 1014.40 1014.43 1014.95 1015.71 1016.17 1016.47 1017.02 1017.47 1017.80 1018.11 1018.56 1018.84 1019.19 1019.41 1019.59 1019.75 1020.10 1020.41 1020.76 1020.78 1021.15 1021.35 1021.51 1021.35 1021.55 1021.62 1021.94 1022.31 1022.59 1022.63 1022.60 1022.58 1022.51 1022.37 1022.26 1022.06 1021.89 1021.90 1021.88 1021.74
1013.52 1014.06 1014.19 1014.04 1014.36 1014.27 1014.10 1014.54 1014.39 1014.81 1014.77 1015.39 1015.98 1016.32 1016.70 1016.88 1017.09 1017.69 1018.06 1018.29 1018.60 1018.77 1019.03 1019.32 1019.62 1019.70 1020.10 1020.49 1020.68 1020.85 1021.05 1021.41 1021.73 1022.01 1022.25 1022.27 1022.37 1022.60 1022.77 1022.70 1022.58 1022.56 1022.40 1022.20 1021.94 1021.68 1021.63 1021.73 1021.68
1014.21 1014.94 1015.01 1014.86 1014.84 1014.92 1014.67 1015.18 1015.08 1015.05 1015.43 1015.89 1016.30 1016.52 1016.78 1016.90 1017.16 1017.12 1017.40 1017.82 1018.15 1018.41 1018.80 1019.24 1019.54 1019.73 1020.07 1020.39 1020.70 1021.08 1021.39 1021.79 1022.17 1022.39 1022.47 1022.52 1022.51 1022.34 1022.55 1022.58 1022.55 1022.43 1022.21 1022.01 1021.92 1021.75 1021.62 1021.72 1021.70
1014.85 1015.48 1015.63 1015.42 1015.33 1015.29 1015.09 1015.45 1015.25 1015.44 1015.73 1016.35 1016.60 1016.89 1017.00 1017.04 1016.82 1016.89 1017.05 1017.46 1017.90 1018.46 1018.99 1019.42 1019.60 1020.05 1020.36 1020.66 1021.08 1021.44 1021.88 1022.20 1022.52 1022.74 1022.79 1022.72 1022.58 1022.50 1022.68 1022.63 1022.63 1022.40 1022.32 1022.33 1022.20 1022.19 1022.02 1022.05 1022.07
1015.86 1016.02 1016.02 1015.98 1015.71 1015.57 1015.65 1015.81 1015.50 1015.70 1016.12 1016.69 1016.80 1017.04 1017.11 1017.04 1016.92 1016.89 1016.96 1017.35 1017.73 1018.20 1019.05 1019.69 1019.94 1020.25 1020.66 1021.04 1021.51 1021.93 1022.37 1022.70 1022.90 1022.94 1023.01 1023.01 1022.92 1022.87 1022.89 1022.99 1022.97 1022.62 1022.57 1022.64 1022.51 1022.43 1022.44 1022.43 1022.42
1015.93 1016.23 1016.25 1016.03 1016.15 1016.12 1016.21 1016.15 1016.09 1016.12 1016.42 1016.73 1016.88 1016.99 1017.15 1017.04 1016.84 1016.95 1017.18 1017.58 1017.98 1018.49 1019.13 1019.59 1019.98 1020.34 1020.75 1021.27 1021.95 1022.49 1022.91 1023.28 1023.36 1023.45 1023.48 1023.46 1023.45 1023.37 1023.33 1023.35 1023.33 1023.11 1023.12 1023.19 1023.02 1022.87 1022.78 1022.77 1022.82
1015.27 1015.93 1016.42 1016.65 1016.61 1016.60 1016.77 1016.77 1016.50 1016.41 1016.54 1016.95 1017.06 1016.84 1017.02 1017.10 1017.27 1017.50 1017.48 1018.02 1018.58 1019.14 1019.46 1019.70 1019.98 1020.40 1020.77 1021.48 1022.30 1022.87 1023.51 1023.95 1024.03 1024.05 1024.02 1023.99 1023.94 1023.85 1023.76 1023.81 1023.70 1023.61 1023.74 1023.82 1023.63 1023.43 1023.37 1023.34 1023.30
1015.45 1016.18 1016.94 1017.38 1017.22 1017.20 1017.35 1017.09 1016.67 1016.65 1016.40 1016.38 1016.66 1016.82 1017.08 1017.49 1017.83 1018.09 1018.26 1018.56 1018.93 1019.22 1019.63 1019.95 1020.24 1020.51 1020.90 1021.37 1022.14 1022.76 1023.56 1024.28 1024.44 1024.52 1024.45 1024.40 1024.31 1024.21 1024.17 1024.25 1024.31 1024.21 1024.18 1024.17 1024.04 1023.93 1023.91 1023.87 1023.80
1015.58 1016.21 1017.32 1017.57 1017.99 1018.09 1018.13 1017.83 1016.90 1016.12 1016.07 1016.02 1015.96 1016.18 1016.81 1017.30 1017.95 1018.64 1018.88 1019.11 1019.41 1019.66 1019.89 1020.21 1020.49 1020.77 1021.10 1021.48 1022.18 1023.10 1023.85 1024.43 1024.73 1024.92 1024.91 1024.90 1024.74 1024.78 1024.79 1024.78 1024.79 1024.84 1024.76 1024.80 1024.71 1024.61 1024.53 1024.56 1024.39
1016.02 1016.46 1017.35 1018.02 1018.54 1019.16 1018.96 1018.41 1017.24 1016.25 1015.98 1015.81 1015.70 1016.11 1016.62 1017.34 1018.09 1018.65 1019.23 1019.64 1019.96 1020.19 1020.33 1020.51 1020.81 1021.10 1021.34 1021.59 1022.08 1022.74 1023.43 1024.15 1024.56 1024.93 1025.19 1025.25 1025.17 1025.23 1025.24 1025.25 1025.31 1025.40 1025.44 1025.40 1025.20 1025.09 1025.03 1024.93 1025.19
1016.52 1016.88 1017.95 1018.99 1019.59 1019.89 1019.92 1019.68 1017.24 1016.91 1016.45 1015.70 1015.57 1016.10 1016.80 1017.25 1017.70 1018.50 1019.30 1019.92 1020.34 1020.72 1021.00 1021.17 1021.31 1021.49 1021.69 1021.93 1022.29 1022.80 1023.51 1024.03 1024.56 1025.11 1025.42 1025.67 1025.79 1025.75 1025.74 1025.79 1025.85 1025.85 1025.90 1025.91 1025.77 1025.65 1025.54 1025.40 1025.57
1016.87 1017.78 1019.20 1020.31 1021.00 1021.08 1020.05 1019.79 1017.90 1017.01 1016.03 1015.84 1016.03 1016.82 1017.26 1017.72 1018.17 1018.94 1019.63 1020.27 1020.86 1021.17 1021.45 1021.59 1021.73 1021.91 1021.92 1022.07 1022.45 1022.91 1023.60 1024.26 1024.87 1025.42 1025.82 1026.07 1026.24 1026.32 1026.22 1026.18 1026.22 1026.26 1026.28 1026.30 1026.29 1026.25 1026.21 1026.19 1026.23
1016.89 1018.18 1020.83 1022.31 1022.55 1021.55 1020.75 1020.35 1017.32 1016.39 1016.12 1015.97 1016.27 1017.39 1017.88 1018.25 1018.82 1019.41 1020.01 1020.57 1021.03 1021.40 1021.72 1021.99 1022.12 1022.29 1022.24 1022.36 1022.74 1023.20 1023.66 1024.17 1024.77 1025.32 1025.78 1026.24 1026.49 1026.67 1026.61 1026.51 1026.56 1026.61 1026.67 1026.74 1026.77 1026.83 1026.88 1026.81 1026.78
1017.30 1017.80 1019.77 1021.68 1022.81 1022.08 1021.42 1019.65 1016.91 1016.52 1016.34 1016.27 1016.79 1017.61 1018.31 1018.82 1019.28 1019.91 1020.32 1020.75 1021.27 1021.60 1021.90 1022.11 1022.35 1022.57 1022.60 1022.76 1023.07 1023.39 1023.81 1024.28 1024.79 1025.23 1025.74 1026.15 1026.41 1026.62 1026.63 1026.75 1026.85 1026.95 1026.93 1026.99 1027.03 1027.13 1027.27 1027.43 1027.45
1017.58 1018.20 1019.26 1021.08 1022.97 1022.65 1020.73 1018.92 1016.97 1016.82 1017.13 1017.36 1017.56 1018.04 1018.69 1019.20 1019.56 1020.00 1020.52 1020.97 1021.43 1021.69 1021.87 1022.09 1022.42 1022.75 1022.90 1023.13 1023.42 1023.82 1024.22 1024.57 1024.95 1025.41 1025.78 1026.17 1026.42 1026.51 1026.81 1026.95 1027.10 1027.23 1027.34 1027.45 1027.58 1027.78 1027.84 1027.86 1027.95
1017.05 1017.90 1019.50 1021.03 1022.62 1022.54 1020.56 1019.29 1017.32 1017.18 1017.22 1017.62 1018.07 1018.31 1018.80 1019.29 1019.74 1020.17 1020.56 1020.92 1021.37 1021.63 1021.86 1022.28 1022.66 1023.03 1023.24 1023.40 1023.71 1024.14 1024.52 1024.88 1025.21 1025.54 1025.94 1026.31 1026.58 1026.80 1027.02 1027.26 1027.44 1027.59 1027.71 1027.79 1027.91 1028.16 1028.26 1028.30 1028.40
1017.74 1017.98 1019.03 1020.05 1020.99 1020.99 1020.48 1018.34 1016.20 1016.12 1016.50 1016.99 1017.41 1018.02 1018.59 1019.11 1019.46 1019.99 1020.46 1020.92 1021.26 1021.69 1022.08 1022.46 1022.91 1023.17 1023.55 1023.74 1023.98 1024.33 1024.71 1025.04 1025.36 1025.68 1026.09 1026.39 1026.69 1026.96 1027.18 1027.33 1027.44 1027.59 1027.83 1027.92 1028.17 1028.35 1028.48 1028.50 1028.46
1017.77 1017.89 1018.47 1019.61 1020.59 1020.59 1020.04 1017.56 1015.97 1015.62 1015.57 1016.21 1017.04 1017.64 1018.16 1018.69 1019.26 1019.86 1020.28 1020.73 1021.26 1021.61 1022.05 1022.37 1022.79 1023.13 1023.40 1023.76 1024.08 1024.43 1024.78 1025.10 1025.43 1025.75 1026.17 1026.49 1026.85 1027.01 1027.11 1027.26 1027.52 1027.73 1027.95 1028.12 1028.36 1028.53 1028.80 1028.93 1028.94
Wind_Speed
4 4 1 4 4 4 1 3 3 3 4 4 4 11 9 5 2 3 1 10 15 11 9 8 9 13 13 15 14 12 12 12 12 12 12 12 14 13 12 11 10 10 12 12 10 10 10 10 10
2 2 4 2 4 3 4 0 5 3 7 9 9 5 7 3 3 9 6 10 13 12 9 7 10 14 13 12 11 11 12 12 12 12 11 13 12 11 11 11 9 10 9 11 9 9 9 8 7
3 2 3 4 2 4 5 3 7 4 7 3 5 5 5 3 5 7 11 13 12 11 9 9 11 14 14 12 10 8 12 12 12 12 12 11 11 11 11 10 9 7 9 10 9 7 7 6 6
3 4 4 4 4 3 9 8 6 7 4 7 7 7 4 2 8 8 14 13 12 9 8 10 12 13 14 12 11 11 12 11 11 9 9 10 10 10 9 9 9 8 9 10 8 6 5 5 5
3 3 3 1 3 1 5 6 7 6 5 4 2 3 2 3 10 19 13 12 13 8 6 8 12 12 12 12 11 11 11 10 8 5 5 9 9 9 8 7 7 7 7 6 5 4 4 4 4
2 3 4 2 1 3 3 5 6 5 4 5 7 6 1 3 16 13 12 11 12 11 7 7 10 11 10 11 10 9 9 8 6 4 2 3 9 7 6 5 4 4 3 3 3 2 1 2 3
5 4 5 4 5 3 6 5 8 8 8 4 9 6 2 4 10 13 11 10 10 9 8 6 6 7 9 9 9 8 7 6 5 4 4 7 6 5 4 2 1 1 2 2 1 2 3 4 5
3 4 5 1 7 5 5 5 3 10 3 8 9 7 7 7 11 13 12 10 8 7 7 6 5 5 5 5 7 7 7 5 5 4 4 4 3 3 2 2 3 3 3 3 3 3 6 7 7
2 3 4 3 7 5 5 6 1 2 9 3 1 8 11 11 11 13 12 8 6 6 8 6 6 5 5 5 5 7 7 6 6 5 4 3 2 4 4 4 5 5 5 5 6 6 8 7 5
4 4 6 4 2 4 5 9 7 6 5 5 5 8 17 12 12 13 13 12 9 8 8 8 7 7 6 5 6 5 4 4 4 4 3 2 4 3 4 6 6 6 6 6 7 8 9 5 3
2 5 5 2 2 3 7 4 3 12 0 7 15 18 16 11 9 13 11 13 13 11 8 8 8 7 6 5 4 3 3 4 4 6 5 5 3 4 2 1 1 2 4 3 4 5 3 4 3
6 4 5 1 4 4 7 5 5 1 7 9 21 24 17 15 15 15 12 11 9 9 10 10 8 7 7 5 5 4 3 3 3 5 6 3 2 3 3 1 2 2 2 4 4 3 4 4 5
5 3 3 4 5 5 5 5 6 2 2 10 13 15 18 16 14 9 10 10 10 10 10 11 9 9 8 7 4 4 4 4 5 4 3 4 3 3 2 2 2 2 2 2 3 3 3 4 5
4 6 5 4 3 4 6 3 3 5 4 14 15 13 12 15 15 8 8 12 12 11 10 9 9 8 7 6 5 3 3 2 4 5 4 5 4 3 3 3 3 3 2 3 3 3 3 4 3
6 7 3 2 2 3 1 3 4 2 6 14 12 10 10 13 9 15 13 12 13 10 8 8 7 5 6 5 4 4 4 5 5 4 5 5 3 5 3 2 1 2 3 3 3 4 2 3 3
5 6 5 1 3 1 3 6 5 3 9 10 9 8 9 9 14 12 9 9 9 9 9 7 6 7 7 7 5 5 5 5 4 4 3 5 5 5 3 2 2 3 3 3 3 4 3 3 3
3 5 3 2 4 3 2 4 4 1 8 9 8 8 8 9 8 6 6 9 11 12 11 9 7 8 8 7 6 7 7 5 4 4 4 5 6 5 4 4 3 3 4 4 3 2 2 2 3
7 5 3 6 6 2 4 3 2 3 6 9 8 8 7 9 9 7 8 7 9 9 8 9 7 8 8 6 6 6 6 5 4 4 4 6 5 6 5 5 5 4 3 3 3 2 3 2 3
7 5 5 2 1 4 6 3 8 6 4 7 8 9 7 5 4 4 7 9 9 7 8 7 8 7 7 4 4 3 4 3 4 4 6 5 5 5 5 3 4 4 4 3 4 2 3 4 2
7 7 3 3 2 2 2 9 8 7 7 9 10 9 7 5 6 4 6 5 5 8 7 7 7 6 4 4 4 4 3 3 3 3 5 5 5 5 5 5 4 4 3 5 5 4 2 2 4
2 7 5 6 3 4 1 7 6 7 7 5 9 6 6 10 11 7 7 7 7 8 8 7 7 6 4 7 7 6 5 3 3 2 3 3 5 5 5 5 4 5 4 4 4 4 5 1 2
5 4 7 10 6 4 1 6 5 5 9 8 10 9 9 10 6 7 6 6 6 5 6 7 6 7 5 6 7 9 4 4 3 3 3 4 5 5 5 5 5 5 4 5 4 4 3 2 3
3 6 6 4 5 4 1 2 8 2 6 9 8 8 6 8 12 12 9 7 5 6 6 6 6 5 4 5 6 5 5 3 4 4 6 5 5 5 5 5 5 5 4 4 5 5 5 3 2
11 10 10 6 3 2 7 6 6 6 8 3 2 5 7 7 6 7 6 8 6 5 6 6 6 3 3 5 6 8 9 8 6 4 4 3 3 3 5 5 5 5 4 4 4 5 6 5 4
6 7 4 4 3 7 3 2 7 5 7 6 9 8 6 5 6 8 9 8 7 7 6 5 6 4 4 6 6 7 8 7 8 6 4 5 2 2 3 4 5 3 4 5 5 5 5 4 3
4 7 8 8 6 3 1 9 8 3 2 2 6 6 6 5 5 6 7 7 7 7 7 7 7 5 5 6 7 6 7 4 4 5 4 4 3 3 3 4 5 5 5 4 4 3 4 5 4
5 4 5 8 3 3 5 7 8 3 2 1 5 5 6 6 7 8 7 7 7 7 7 8 8 6 6 6 6 6 6 7 6 6 5 4 4 3 4 4 5 5 5 5 5 4 4 4 3
3 8 4 4 5 4 5 5 7 7 9 7 7 8 7 5 7 7 6 7 6 6 6 6 6 6 6 7 6 5 6 6 6 6 6 6 5 4 5 4 5 5 5 5 5 4 4 5 3
2 2 4 5 5 6 2 8 7 6 10 11 10 8 8 8 8 7 6 6 6 6 6 6 7 7 6 6 6 7 6 6 6 5 5 5 5 5 5 5 5 5 4 4 5 4 4 4 4
2 5 5 5 5 2 3 8 2 5 8 8 8 8 7 6 8 7 7 8 7 8 7 7 7 7 7 6 6 6 6 6 6 6 6 6 6 4 5 5 5 4 4 4 4 4 3 4 4
Wind_Direction
48 145 73 43 70 76 189 202 135 127 53 352 41 94 112 59 83 172 61 139 131 132 132 128 125 124 116 113 110 108 103 98 97 97 98 98 95 84 77 79 77 79 91 94 87 84 80 73 64
104 180 35 90 98 96 264 172 143 135 133 126 85 78 53 71 70 116 91 142 130 129 124 125 124 124 112 105 108 117 116 107 105 104 107 102 92 86 85 86 86 84 93 103 97 95 87 77 62
187 182 86 107 106 164 174 193 145 115 155 103 94 63 108 106 101 147 134 139 130 126 129 136 132 125 123 121 122 129 127 117 114 105 108 102 97 94 90 88 89 68 130 117 105 103 91 66 44
149 20 19 98 232 232 152 183 144 127 73 50 111 60 55 171 147 143 139 137 124 128 134 142 139 135 133 133 126 118 138 124 126 125 126 117 109 104 100 92 89 73 76 95 94 84 66 50 39
51 68 70 141 274 56 98 165 146 124 97 102 115 107 59 13 118 132 138 135 129 129 139 142 141 141 141 137 132 125 127 130 134 127 109 132 124 118 113 106 97 90 83 82 88 81 66 44 25
62 110 72 209 319 39 64 184 122 91 108 148 79 96 8 119 126 143 136 138 138 141 148 150 147 147 145 141 136 131 130 132 137 127 90 134 142 131 126 121 117 114 109 106 103 93 51 356 342
145 106 180 171 138 159 177 191 135 135 139 147 136 91 159 152 131 142 133 130 137 141 141 139 147 151 147 143 138 135 135 136 136 101 79 94 120 129 127 135 168 188 238 226 255 251 280 291 296
133 105 154 154 151 201 167 137 148 128 100 123 142 154 176 204 136 135 132 129 134 142 142 148 148 150 147 147 140 135 133 128 128 124 121 132 154 169 182 198 241 252 262 271 272 285 273 272 282
89 84 140 153 165 163 161 128 225 35 110 72 37 147 160 164 127 136 134 134 140 155 156 158 163 169 161 156 157 151 153 157 161 171 190 192 226 222 210 228 226 242 252 256 259 258 260 276 316
115 126 184 159 185 164 158 126 145 103 112 38 62 91 135 144 145 146 155 159 168 170 176 173 176 176 170 170 161 172 174 182 195 194 198 220 221 232 211 212 227 252 267 279 279 274 285 336 306
160 163 146 170 130 165 133 116 98 123 351 187 148 146 151 151 153 159 167 172 175 179 175 181 183 176 166 163 178 193 198 176 188 207 189 212 189 198 209 244 294 294 301 290 300 307 282 271 276
98 12 134 42 348 134 134 133 89 230 192 160 158 158 157 164 171 173 174 174 170 170 183 183 186 170 178 167 184 200 204 188 168 195 192 187 73 33 5 353 302 298 291 295 283 280 281 271 261
99 158 82 85 66 50 99 78 147 151 127 141 150 160 167 171 177 180 176 179 177 177 182 187 177 178 179 186 180 193 196 202 188 192 151 113 94 63 34 347 344 326 308 309 286 261 264 276 279
133 107 121 52 60 32 106 86 122 256 93 138 158 173 176 178 181 175 181 186 186 183 183 178 180 181 169 178 179 185 164 134 71 64 60 74 101 91 52 5 38 350 338 321 316 303 284 291 306
138 99 77 61 349 105 110 30 161 147 139 155 174 181 180 190 183 195 191 189 184 188 160 157 144 148 154 146 124 94 84 84 80 76 64 71 70 72 47 26 3 333 330 339 0 3 18 26 28
83 75 140 228 165 326 90 227 231 214 151 177 174 192 193 204 200 202 192 183 169 143 141 129 123 118 111 113 101 97 82 85 81 78 64 55 58 65 60 60 20 355 39 31 19 7 35 34 45
25 164 161 160 229 126 127 216 214 163 175 181 190 194 206 217 227 226 189 163 151 145 137 130 126 117 114 102 92 89 89 82 80 75 64 47 43 41 73 52 20 21 43 28 4 7 36 42 51
169 161 175 165 211 152 159 236 230 214 166 201 203 212 215 218 219 176 142 130 125 121 123 128 128 125 121 107 97 84 77 61 52 54 49 48 40 43 58 46 33 33 49 25 5 356 18 57 104
143 132 126 34 323 133 194 218 233 250 254 221 229 230 219 217 131 100 124 123 117 121 129 135 132 138 130 126 111 92 85 66 56 54 55 53 51 49 60 63 52 46 55 33 3 340 41 37 20
136 125 99 41 7 107 150 258 244 238 237 215 214 229 202 155 138 130 120 124 144 139 131 131 131 141 144 117 106 115 129 87 96 76 61 58 59 51 63 61 53 47 61 40 23 25 9 48 20
114 136 169 152 130 33 51 298 255 253 236 218 227 217 184 176 169 169 177 161 141 142 148 142 140 132 122 120 109 89 84 84 91 61 64 44 59 53 59 60 61 50 48 46 35 18 33 37 0
154 156 139 133 120 191 168 265 283 242 248 219 228 207 192 176 164 174 172 163 161 150 133 126 124 124 125 133 128 150 152 153 163 135 110 77 60 59 56 59 58 58 47 46 31 30 35 77 33
167 121 115 95 94 108 227 79 266 266 252 245 234 217 161 185 179 178 167 151 140 139 131 118 116 114 125 147 152 146 119 111 116 115 109 84 58 55 56 59 60 59 54 51 47 38 42 36 90
145 88 51 51 56 317 197 163 262 199 218 237 174 142 151 154 158 143 133 129 129 121 114 115 119 100 102 150 152 146 139 140 135 132 117 109 78 50 49 58 61 60 60 57 54 53 52 53 58
120 99 26 357 1 229 14 206 252 244 245 215 186 168 167 151 148 153 147 151 150 142 136 130 134 118 116 130 131 138 142 144 143 148 145 141 115 54 48 57 60 62 70 65 64 60 53 44 67
160 149 152 184 195 222 38 232 245 271 317 87 130 142 150 154 148 152 160 150 153 155 152 144 145 138 126 129 134 134 136 133 133 143 138 132 127 133 111 94 77 69 76 76 75 73 67 57 51
204 148 139 104 22 60 216 285 299 167 191 144 156 160 183 174 178 170 168 175 172 167 170 163 157 149 141 128 122 120 120 131 137 127 124 131 135 134 116 100 94 77 73 68 63 63 64 67 53
159 155 83 0 134 243 265 279 241 219 211 216 215 216 208 194 190 193 188 183 185 175 167 162 151 147 151 141 131 132 138 133 131 129 136 141 131 112 115 98 87 79 79 82 84 70 54 69 45
116 161 89 120 151 175 169 257 218 216 193 205 219 209 199 200 195 193 191 185 172 160 157 154 155 153 155 149 141 142 149 143 138 138 144 137 121 127 123 127 121 113 108 101 97 94 87 89 80
185 193 150 151 214 218 152 276 286 262 201 182 208 208 201 189 189 188 178 169 168 171 168 169 163 163 169 159 153 160 150 150 148 149 140 133 135 139 148 145 131 119 114 107 120 104 96 94 77